�N����,����,�~����,�C��,���x,�C��,����,���ϕ���,�ő�u�ԕ���,�ő厞����,���˗�,�I�_���x,�n�����x,�ő啗���N��,DTYPE
"19/08/24","00:10",0.2,22.9,96.3,1004.8,351.9,0.6,1.1,346.3,0.00,22.3,25.4,"00:06:08",1
"19/08/24","00:20",0.0,22.9,96.2,1004.8,298.1,0.3,1.0,332.9,0.00,22.3,25.3,"00:13:36",1
"19/08/24","00:30",0.4,22.9,96.3,1004.5,254.6,0.2,0.6,238.7,0.00,22.3,25.6,"00:20:08",1
"19/08/24","00:40",0.0,22.9,96.3,1004.8,294.6,0.2,0.8,319.9,0.00,22.3,25.4,"00:35:04",1
"19/08/24","00:50",0.2,22.9,96.3,1004.5,44.7,0.2,1.1,337.5,0.00,22.3,25.6,"00:48:08",1
"19/08/24","01:00",0.0,22.9,96.4,1004.5,324.4,0.6,1.1,342.1,0.00,22.3,25.5,"00:55:36",1
"19/08/24","01:10",0.0,22.9,96.4,1004.5,302.4,0.5,0.9,330.8,0.00,22.3,25.3,"01:09:20",1
"19/08/24","01:20",0.0,22.9,96.4,1004.5,343.6,0.7,1.3,350.2,0.00,22.3,25.6,"01:14:32",1
"19/08/24","01:30",0.0,22.8,96.4,1004.5,306.4,0.5,1.4,342.5,0.00,22.2,25.4,"01:21:52",1
"19/08/24","01:40",0.0,22.8,96.5,1004.8,276.2,0.3,0.6,319.9,0.00,22.3,25.4,"01:38:08",1
"19/08/24","01:50",0.0,22.7,96.5,1004.5,309.3,0.5,1.0,341.4,0.00,22.2,25.6,"01:46:00",1
"19/08/24","02:00",0.0,22.7,96.5,1004.5,339.6,0.5,1.0,342.4,0.00,22.2,25.2,"01:51:36",1
"19/08/24","02:10",0.0,22.7,96.5,1004.5,327.6,0.5,1.1,328.2,0.00,22.2,25.6,"02:03:12",1
"19/08/24","02:20",0.0,22.6,96.5,1004.5,288.7,0.5,1.1,324.0,0.00,22.1,25.2,"02:10:24",1
"19/08/24","02:30",0.0,22.5,96.5,1004.5,261.2,0.3,0.9,282.7,0.00,22.0,25.4,"02:26:00",1
"19/08/24","02:40",0.0,22.5,96.6,1004.8,291.6,0.5,0.9,333.7,0.00,22.0,25.3,"02:32:56",1
"19/08/24","02:50",0.0,22.5,96.7,1004.5,305.0,0.5,0.9,249.6,0.00,22.0,25.4,"02:40:32",1
"19/08/24","03:00",0.0,22.5,96.7,1004.3,325.7,0.3,1.2,338.6,0.00,22.0,25.3,"02:50:16",1
"19/08/24","03:10",0.0,22.5,96.7,1004.5,318.2,0.6,1.0,329.1,0.00,22.0,25.3,"03:05:12",1
"19/08/24","03:20",0.0,22.4,96.7,1004.3,321.1,0.5,0.8,320.1,0.00,21.9,25.2,"03:18:24",1
"19/08/24","03:30",0.0,22.4,96.8,1004.1,321.3,0.5,0.9,338.2,0.00,21.9,25.3,"03:26:00",1
"19/08/24","03:40",0.0,22.4,96.8,1003.8,233.6,0.3,0.6,235.7,0.00,21.9,25.2,"03:36:32",1
"19/08/24","03:50",0.0,22.4,96.8,1004.3,330.5,0.6,1.3,340.7,0.00,21.9,25.2,"03:46:56",1
"19/08/24","04:00",0.0,22.3,96.7,1004.1,269.2,0.5,0.8,319.7,0.00,21.8,25.2,"03:50:24",1
"19/08/24","04:10",0.0,22.1,96.9,1003.8,283.1,0.5,0.8,271.6,0.00,21.6,25.2,"04:06:00",1
"19/08/24","04:20",0.0,22.0,96.9,1004.1,323.4,0.6,0.9,311.3,0.00,21.5,25.2,"04:11:28",1
"19/08/24","04:30",0.0,21.9,97.0,1004.3,298.5,0.5,0.8,324.4,0.00,21.4,25.2,"04:27:28",1
"19/08/24","04:40",0.0,21.9,97.0,1004.3,336.5,0.6,1.0,347.1,0.00,21.4,25.2,"04:38:08",1
"19/08/24","04:50",0.0,21.9,97.0,1004.3,302.3,0.3,1.0,330.9,0.00,21.4,25.2,"04:47:36",1
"19/08/24","05:00",0.0,22.0,97.1,1004.3,276.6,0.2,0.6,339.5,0.00,21.6,25.1,"04:50:32",1
"19/08/24","05:10",0.0,22.1,97.0,1004.3,283.9,0.3,0.8,308.3,0.00,21.6,25.0,"05:04:24",1
"19/08/24","05:20",0.0,22.0,97.1,1004.3,319.1,0.5,1.0,311.4,0.00,21.6,25.1,"05:19:44",1
"19/08/24","05:30",0.0,22.0,97.0,1004.5,277.4,0.5,1.0,331.1,0.00,21.5,25.0,"05:20:08",1
"19/08/24","05:40",0.0,22.0,97.0,1004.3,310.3,0.6,0.9,335.6,0.00,21.5,25.0,"05:32:56",1
"19/08/24","05:50",0.0,22.0,97.1,1004.3,310.4,0.6,1.0,314.3,0.00,21.6,24.8,"05:44:56",1
"19/08/24","06:00",0.0,22.2,97.2,1004.5,325.6,0.7,1.2,333.2,0.00,21.8,24.9,"05:57:44",1
"19/08/24","06:10",0.0,22.2,97.2,1004.3,316.9,0.6,1.0,335.0,0.00,21.8,24.8,"06:01:04",1
"19/08/24","06:20",0.0,22.3,97.1,1004.5,279.0,0.5,1.0,319.0,0.00,21.9,25.1,"06:19:20",1
"19/08/24","06:30",0.0,22.3,97.1,1004.8,337.9,0.6,1.2,338.7,0.00,21.9,24.7,"06:20:08",1
"19/08/24","06:40",0.0,22.4,97.2,1004.8,321.9,0.7,1.2,327.1,0.00,22.0,24.9,"06:32:56",1
"19/08/24","06:50",0.0,22.5,97.0,1005.0,287.8,0.3,0.9,319.6,0.00,22.0,24.9,"06:42:24",1
"19/08/24","07:00",0.0,22.5,97.0,1005.0,273.8,0.5,0.9,258.2,0.00,22.0,24.8,"06:55:12",1
"19/08/24","07:10",0.0,22.5,97.0,1004.8,289.3,0.6,1.1,324.1,0.00,22.0,24.8,"07:05:20",1
"19/08/24","07:20",0.0,22.6,97.1,1005.2,286.7,0.5,0.9,262.3,0.01,22.2,24.9,"07:12:32",1
"19/08/24","07:30",0.0,22.9,97.0,1005.2,282.9,0.2,0.8,317.3,0.02,22.4,25.0,"07:20:16",1
"19/08/24","07:40",0.0,22.9,97.0,1005.2,236.8,0.1,0.5,222.1,0.03,22.4,25.0,"07:37:28",1
"19/08/24","07:50",0.0,23.0,96.9,1005.0,238.9,0.1,0.8,280.8,0.08,22.5,24.9,"07:49:20",1
"19/08/24","08:00",0.0,23.4,96.4,1005.5,246.7,0.2,0.8,209.3,0.11,22.8,25.0,"07:55:20",1
"19/08/24","08:10",0.0,23.4,96.2,1005.0,132.5,0.2,1.0,124.4,0.10,22.8,25.0,"08:07:04",1
"19/08/24","08:20",0.0,23.9,96.0,1005.0,183.5,0.1,0.5,172.0,0.11,23.3,25.2,"08:13:12",1
"19/08/24","08:30",0.0,24.1,95.0,1005.0,194.7,0.7,2.0,230.0,0.17,23.3,25.2,"08:23:04",1
"19/08/24","08:40",0.0,23.9,94.3,1005.2,180.6,1.2,2.5,169.1,0.13,23.0,25.3,"08:36:48",1
"19/08/24","08:50",0.0,24.1,93.4,1004.8,141.1,1.1,2.5,135.0,0.17,23.0,25.3,"08:46:56",1
"19/08/24","09:00",0.0,25.4,92.3,1005.2,156.0,0.8,2.2,224.5,0.30,24.1,25.3,"08:54:40",1
"19/08/24","09:10",0.0,25.3,88.3,1004.8,149.0,0.6,1.4,135.9,0.21,23.3,25.6,"09:09:20",1
"19/08/24","09:20",0.0,26.3,87.0,1004.8,160.6,0.6,1.8,101.8,0.33,24.0,25.8,"09:14:00",1
"19/08/24","09:30",0.0,26.1,83.3,1004.1,135.7,1.0,2.1,135.4,0.36,23.1,25.7,"09:24:08",1
"19/08/24","09:40",0.0,26.2,83.3,1004.1,148.2,0.5,1.4,138.2,0.18,23.2,25.8,"09:31:44",1
"19/08/24","09:50",0.0,26.9,80.8,1003.6,169.6,0.8,2.6,208.3,0.36,23.4,26.1,"09:47:04",1
"19/08/24","10:00",0.0,26.5,80.8,1003.6,171.4,0.5,1.8,197.1,0.17,23.0,26.2,"09:50:40",1
"19/08/24","10:10",0.0,26.2,81.7,1003.8,275.6,0.3,1.7,130.5,0.13,22.9,26.2,"10:07:36",1
"19/08/24","10:20",0.0,26.9,80.1,1004.1,55.9,0.6,3.1,117.6,0.31,23.2,26.0,"10:19:36",1
"19/08/24","10:30",0.0,27.3,75.9,1004.8,194.7,1.2,2.8,218.3,0.48,22.7,26.3,"10:28:48",1
"19/08/24","10:40",0.0,27.8,77.8,1005.0,179.8,1.1,2.8,200.2,0.38,23.6,26.7,"10:37:28",1
"19/08/24","10:50",0.0,27.7,76.5,1005.0,189.8,2.0,3.9,221.0,0.52,23.2,26.5,"10:49:28",1
"19/08/24","11:00",0.0,27.5,76.4,1005.2,164.6,1.2,3.2,188.6,0.37,23.0,26.8,"10:52:32",1
"19/08/24","11:10",0.0,27.6,76.7,1005.2,169.4,1.1,3.4,203.0,0.34,23.2,26.9,"11:05:44",1
"19/08/24","11:20",0.0,27.8,74.7,1005.0,164.6,0.8,2.2,194.8,0.32,22.9,26.8,"11:14:24",1
"19/08/24","11:30",0.0,27.4,74.9,1004.3,118.5,0.7,1.9,145.2,0.19,22.6,27.1,"11:23:52",1
"19/08/24","11:40",0.0,27.5,76.0,1004.3,131.4,0.5,2.0,132.4,0.14,22.9,27.2,"11:32:16",1
"19/08/24","11:50",0.0,29.5,75.4,1003.8,352.7,0.6,2.2,347.4,0.50,24.7,27.3,"11:43:12",1
"19/08/24","12:00",0.0,29.2,70.2,1004.3,11.4,1.2,3.2,2.8,0.48,23.3,27.2,"11:59:20",1
"19/08/24","12:10",0.0,28.7,68.6,1004.5,162.4,1.2,3.5,221.0,0.35,22.4,27.6,"12:07:44",1
"19/08/24","12:20",0.0,29.5,64.2,1004.5,224.6,0.7,2.6,229.9,0.54,22.1,27.6,"12:10:08",1
"19/08/24","12:30",0.0,30.1,61.3,1004.8,218.7,0.8,2.5,239.0,0.57,21.9,27.9,"12:23:28",1
"19/08/24","12:40",0.0,30.0,59.7,1004.8,211.9,2.2,4.7,194.1,0.47,21.3,28.1,"12:35:12",1
"19/08/24","12:50",0.0,29.6,60.0,1004.5,347.1,1.5,3.6,0.0,0.35,21.1,28.0,"12:42:08",1
"19/08/24","13:00",0.0,30.6,58.0,1004.1,331.6,1.3,3.5,344.0,0.55,21.4,28.3,"12:53:44",1
"19/08/24","13:10",0.0,30.7,57.1,1004.3,319.4,1.1,3.1,335.5,0.62,21.3,28.3,"13:00:24",1
"19/08/24","13:20",0.0,30.1,60.5,1004.3,246.4,1.1,3.3,227.1,0.30,21.7,28.2,"13:14:56",1
"19/08/24","13:30",0.0,30.0,57.9,1004.3,312.3,1.2,4.0,346.7,0.25,20.8,28.6,"13:24:08",1
"19/08/24","13:40",0.0,29.6,57.9,1003.8,241.6,1.3,3.9,201.5,0.29,20.5,28.5,"13:38:16",1
"19/08/24","13:50",0.0,29.3,59.8,1003.6,308.7,1.1,2.4,345.7,0.14,20.7,28.6,"13:48:48",1
"19/08/24","14:00",0.0,29.1,63.5,1003.6,248.2,1.3,3.3,214.8,0.12,21.5,28.4,"13:58:18",1
"19/08/24","14:10",0.0,28.8,64.7,1002.9,228.7,1.1,2.2,244.2,0.10,21.5,28.4,"14:08:40",1
"19/08/24","14:20",0.0,28.8,64.4,1002.9,258.1,1.0,3.2,234.1,0.11,21.5,28.4,"14:12:08",1
"19/08/24","14:30",0.0,30.0,63.0,1002.4,228.2,1.6,3.3,225.8,0.30,22.2,28.3,"14:26:24",1
"19/08/24","14:40",0.0,29.9,59.6,1002.9,246.8,1.1,2.5,244.8,0.39,21.2,28.5,"14:36:48",1
"19/08/24","14:50",0.0,29.0,63.3,1002.9,222.3,1.8,4.3,204.3,0.14,21.4,28.2,"14:45:36",1
"19/08/24","15:00",0.0,29.5,64.4,1002.6,208.9,1.7,4.1,225.2,0.19,22.1,28.3,"14:51:36",1
"19/08/24","15:10",0.0,29.3,64.7,1003.1,240.2,1.3,3.6,227.7,0.27,22.0,28.2,"15:00:24",1
"19/08/24","15:20",0.0,29.1,66.3,1003.4,217.9,1.5,3.3,222.5,0.12,22.2,28.2,"15:11:28",1
"19/08/24","15:30",0.0,29.8,63.7,1003.4,247.7,1.6,4.2,224.9,0.37,22.2,28.3,"15:21:44",1
"19/08/24","15:40",0.0,29.7,64.1,1003.1,239.5,1.7,3.5,197.2,0.29,22.2,28.3,"15:34:56",1
"19/08/24","15:50",0.0,29.5,61.1,1003.6,237.3,1.5,3.3,217.7,0.33,21.3,28.4,"15:44:24",1
"19/08/24","16:00",0.0,29.8,59.3,1003.1,248.1,1.8,3.2,233.3,0.35,21.0,28.2,"15:59:12",1
"19/08/24","16:10",0.0,29.7,57.9,1003.1,239.5,2.1,7.3,223.0,0.29,20.6,28.5,"16:09:52",1
"19/08/24","16:20",0.0,29.4,58.2,1002.9,245.5,1.6,4.7,234.1,0.13,20.4,28.2,"16:16:56",1
"19/08/24","16:30",0.0,29.1,57.7,1002.6,238.0,2.1,3.6,224.5,0.13,20.0,28.2,"16:20:16",1
"19/08/24","16:40",0.0,29.0,57.4,1002.4,236.6,2.3,5.9,223.2,0.09,19.8,28.2,"16:34:32",1
"19/08/24","16:50",0.0,28.7,59.0,1002.4,242.1,1.6,3.3,215.9,0.09,19.9,28.1,"16:43:04",1
"19/08/24","17:00",0.0,28.9,59.0,1002.4,270.0,1.3,3.4,223.3,0.09,20.1,27.9,"16:58:56",1
"19/08/24","17:10",0.0,28.7,58.8,1002.4,256.7,1.2,3.3,216.5,0.06,19.9,27.8,"17:05:36",1
"19/08/24","17:20",0.0,28.4,59.6,1001.9,276.1,1.3,3.4,242.7,0.03,19.8,27.9,"17:10:24",1
"19/08/24","17:30",0.0,28.3,60.7,1001.7,291.6,1.1,4.4,231.9,0.06,20.0,27.9,"17:20:48",1
"19/08/24","17:40",0.0,28.3,61.8,1001.9,327.7,1.0,2.0,318.4,0.04,20.3,27.9,"17:32:56",1
"19/08/24","17:50",0.0,28.0,63.2,1002.2,259.9,0.7,3.2,336.8,0.03,20.4,27.8,"17:41:28",1
"19/08/24","18:00",0.0,27.8,63.4,1002.4,282.9,1.0,2.8,346.6,0.01,20.3,27.7,"17:58:16",1
"19/08/24","18:10",0.0,27.7,65.5,1002.9,275.6,1.1,4.1,233.3,0.01,20.7,27.6,"18:03:52",1
"19/08/24","18:20",0.0,27.5,66.4,1002.6,319.0,1.0,2.2,316.4,0.00,20.7,27.6,"18:18:48",1
"19/08/24","18:30",0.0,27.4,67.6,1002.4,290.4,1.1,2.8,325.1,0.01,20.9,27.5,"18:26:24",1
"19/08/24","18:40",0.0,27.3,68.9,1003.1,266.0,1.0,2.4,234.7,0.00,21.1,27.4,"18:31:44",1
"19/08/24","18:50",0.0,27.1,70.5,1003.1,292.8,0.8,2.0,324.0,0.00,21.3,27.5,"18:49:04",1
"19/08/24","19:00",0.0,26.9,71.7,1002.9,266.8,1.5,3.9,207.3,0.00,21.4,27.2,"18:56:00",1
"19/08/24","19:10",0.0,26.7,73.0,1003.1,284.4,0.7,2.1,339.2,0.00,21.5,27.1,"19:00:08",1
"19/08/24","19:20",0.0,26.5,74.1,1003.1,267.3,1.0,1.9,303.4,0.00,21.6,27.2,"19:13:44",1
"19/08/24","19:30",0.0,26.5,74.2,1003.1,265.6,1.2,3.2,269.3,0.00,21.6,27.0,"19:29:44",1
"19/08/24","19:40",0.0,26.5,73.7,1003.4,259.0,1.6,2.8,230.7,0.00,21.5,27.0,"19:39:12",1
"19/08/24","19:50",0.0,26.4,73.6,1003.4,263.2,1.2,4.2,234.6,0.00,21.3,26.8,"19:43:04",1
"19/08/24","20:00",0.0,26.3,74.3,1003.4,316.7,1.0,2.2,312.5,0.00,21.4,27.0,"19:53:28",1
"19/08/24","20:10",0.0,26.0,75.3,1003.8,333.6,1.1,2.4,15.3,0.00,21.3,26.8,"20:05:44",1
"19/08/24","20:20",0.0,25.8,76.3,1003.8,304.1,0.7,1.8,336.5,0.00,21.4,26.7,"20:13:36",1
"19/08/24","20:30",0.0,25.8,77.0,1003.8,308.5,0.7,2.0,344.7,0.00,21.5,26.5,"20:29:28",1
"19/08/24","20:40",0.0,25.5,78.1,1004.3,340.9,1.0,2.0,351.8,0.00,21.4,27.0,"20:35:12",1
"19/08/24","20:50",0.0,25.5,78.6,1004.1,343.6,1.7,3.6,335.0,0.00,21.5,26.8,"20:46:00",1
"19/08/24","21:00",0.0,25.3,79.4,1004.3,343.1,1.2,2.6,354.7,0.00,21.5,26.7,"20:53:04",1
"19/08/24","21:10",0.0,25.0,81.0,1004.3,338.1,0.6,2.1,357.1,0.00,21.6,26.5,"21:05:04",1
"19/08/24","21:20",0.0,24.8,81.7,1004.3,256.2,0.3,1.2,44.0,0.00,21.5,26.5,"21:16:48",1
"19/08/24","21:30",0.0,24.9,82.0,1004.5,327.9,0.8,1.6,323.2,0.00,21.7,26.4,"21:25:04",1
"19/08/24","21:40",0.0,24.8,83.0,1004.3,341.5,1.1,1.7,357.9,0.00,21.8,26.7,"21:33:04",1
"19/08/24","21:50",0.0,24.5,84.3,1004.8,337.5,1.1,1.6,330.1,0.00,21.7,26.4,"21:42:24",1
"19/08/24","22:00",0.0,24.4,85.3,1004.8,338.6,1.0,2.7,334.9,0.00,21.8,26.5,"21:59:28",1
"19/08/24","22:10",0.0,24.2,86.4,1004.8,319.7,1.0,2.0,337.8,0.00,21.8,26.3,"22:03:36",1
"19/08/24","22:20",0.2,24.1,87.2,1004.5,325.5,1.1,1.8,343.9,0.00,21.9,26.3,"22:17:28",1
"19/08/24","22:30",0.0,23.8,87.9,1004.8,331.2,1.0,2.0,328.8,0.00,21.7,26.3,"22:22:08",1
"19/08/24","22:40",0.0,23.6,88.7,1005.0,342.5,1.1,1.8,330.5,0.00,21.7,26.2,"22:37:28",1
"19/08/24","22:50",0.0,23.4,89.2,1004.5,325.8,0.8,1.4,350.7,0.00,21.6,26.2,"22:40:56",1
"19/08/24","23:00",0.0,23.4,89.9,1004.5,347.6,0.5,1.2,326.3,0.00,21.7,26.2,"22:50:56",1
"19/08/24","23:10",0.0,23.3,90.0,1005.0,323.0,1.0,1.7,346.9,0.00,21.6,26.0,"23:08:16",1
"19/08/24","23:20",0.0,23.4,90.4,1005.0,346.2,1.1,2.2,337.5,0.00,21.8,26.0,"23:14:48",1
"19/08/24","23:30",0.0,23.3,90.7,1005.2,316.7,1.0,1.6,335.2,0.00,21.7,26.1,"23:22:16",1
"19/08/24","23:40",0.0,23.2,91.0,1005.2,318.5,1.0,1.3,339.9,0.00,21.7,26.0,"23:33:44",1
"19/08/24","23:50",0.0,23.2,91.2,1005.0,320.6,1.5,2.0,329.2,0.00,21.7,26.1,"23:44:48",1
"19/08/24","24:00",0.0,23.0,91.4,1004.8,322.2,1.7,2.6,324.7,0.00,21.6,25.8,"23:52:08",1
